Location: Hope
(40.9110°N, 74.9680°W)
Time: 13:12:28
(UTC-05:00)

FORTE - Pass Details

Date: 09 December 2021
Orbit: 785 x 822 km, 70.0° (Epoch: 22 January)

Event Time Altitude Azimuth Distance (km) Brightness Sun altitude
Rises 05:28:56 0° 216° (SW) 3,263 10.0 -19.0°
Reaches altitude 10° 05:31:22 10° 221° (SW) 2,340 9.3 -18.5°
Maximum altitude 05:36:36 54° 299° (WNW) 952 7.1 -17.6°
Drops below altitude 10° 05:41:54 10° 17° (NNE) 2,372 9.5 -16.6°
Sets 05:44:24 0° 22° (NNE) 3,311 10.4 -16.2°
